TimePST,TemperatureF,Dew PointF,Humidity,Sea Level PressureIn,VisibilityMPH,Wind Direction,Wind SpeedMPH,Gust SpeedMPH,PrecipitationIn,Events,Conditions,WindDirDegrees,DateUTC
12:52 AM,15.1,9.0,77,30.51,10.0,Calm,Calm,-,N/A,,Clear,0,2013-12-25 08:52:00
1:52 AM,14.0,9.0,80,30.51,10.0,Calm,Calm,-,N/A,,Clear,0,2013-12-25 09:52:00
2:52 AM,12.9,7.0,77,30.54,10.0,Calm,Calm,-,N/A,,Clear,0,2013-12-25 10:52:00
3:52 AM,12.0,6.1,77,30.55,10.0,Calm,Calm,-,N/A,,Clear,0,2013-12-25 11:52:00
4:52 AM,10.9,5.0,77,30.58,10.0,Calm,Calm,-,N/A,,Clear,0,2013-12-25 12:52:00
5:52 AM,9.0,3.9,80,30.61,10.0,Calm,Calm,-,N/A,,Clear,0,2013-12-25 13:52:00
6:52 AM,7.0,1.9,80,30.66,10.0,Calm,Calm,-,N/A,,Clear,0,2013-12-25 14:52:00
7:52 AM,10.0,3.9,76,30.66,10.0,Calm,Calm,-,N/A,,Clear,0,2013-12-25 15:52:00
8:52 AM,16.0,9.0,74,30.64,10.0,Calm,Calm,-,N/A,,Clear,0,2013-12-25 16:52:00
9:52 AM,26.1,14.0,60,30.60,10.0,Calm,Calm,-,N/A,,Clear,0,2013-12-25 17:52:00
10:52 AM,35.1,10.9,37,30.53,10.0,Calm,Calm,-,N/A,,Clear,0,2013-12-25 18:52:00
11:52 AM,46.9,5.0,18,30.45,10.0,Calm,Calm,-,N/A,,Clear,0,2013-12-25 19:52:00
12:52 PM,52.0,1.0,12,30.41,10.0,ESE,3.5,-,N/A,,Clear,120,2013-12-25 20:52:00
1:52 PM,54.0,1.0,12,30.39,10.0,Variable,5.8,-,N/A,,Clear,0,2013-12-25 21:52:00
2:52 PM,53.1,1.9,12,30.40,10.0,ENE,5.8,-,N/A,,Clear,60,2013-12-25 22:52:00
3:52 PM,51.1,3.0,14,30.41,10.0,ENE,5.8,-,N/A,,Clear,60,2013-12-25 23:52:00
4:52 PM,37.0,9.0,31,30.50,10.0,Calm,Calm,-,N/A,,Clear,0,2013-12-26 00:52:00
5:52 PM,30.9,10.0,42,30.56,10.0,Calm,Calm,-,N/A,,Clear,0,2013-12-26 01:52:00
6:52 PM,26.1,10.9,53,30.61,10.0,Calm,Calm,-,N/A,,Clear,0,2013-12-26 02:52:00
7:52 PM,25.0,10.9,55,30.61,10.0,Calm,Calm,-,N/A,,Clear,0,2013-12-26 03:52:00
8:52 PM,21.9,10.0,60,30.61,10.0,Calm,Calm,-,N/A,,Clear,0,2013-12-26 04:52:00
9:52 PM,19.9,9.0,62,30.56,10.0,Calm,Calm,-,N/A,,Clear,0,2013-12-26 05:52:00
10:52 PM,18.0,9.0,68,30.53,10.0,Calm,Calm,-,N/A,,Clear,0,2013-12-26 06:52:00
11:52 PM,17.1,8.1,68,30.49,10.0,Calm,Calm,-,N/A,,Clear,0,2013-12-26 07:52:00